Regional Weather Roundup
Issued by NWS

Home | Current Version | Previous Version | Text Only | Print | Product List | Glossary On
Versions: 1 2 3 4 5 6 7 8 9 10 11 12 13 14 15 16 17 18 19 20 21 22 23 24 25 26 27 28 29 30 31 32 33 34 35 36 37 38 39 40 41 42 43 44 45 46 47 48 49 50
000
ASUS44 KOUN 031110
RWROK

WEATHER ROUNDUP FOR OKLAHOMA
NATIONAL WEATHER SERVICE NORMAN OK
500 AM CST TUE MAR 03 2015

NOTE: "FAIR" INDICATES FEW OR NO CLOUDS BELOW 12,000 FEET WITH NO
      SIGNIFICANT WEATHER AND/OR OBSTRUCTIONS TO VISIBILITY.

OKZ001>007-009>012-014-015-017-031200-
NORTHWEST OKLAHOMA AND THE PANHANDLE

CITY           SKY/WX    TMP DP  RH WIND       PRES   REMARKS
GAGE           PTCLDY    37  33  85 SW24G32   29.78F WCI  26
ENID/WOODRING  CLOUDY    37  36  93 S16       29.83S WCI  28
$$

OKZ016-021>023-033>039-044-045-031200-
SOUTHWEST OKLAHOMA

CITY           SKY/WX    TMP DP  RH WIND       PRES   REMARKS
LAWTON/REGL    CLOUDY    38  35  89 S7        29.96F FOG     WCI  33
FREDERICK      CLOUDY    38  35  89 S15       29.92F FOG     WCI  29
CLINTON        CLOUDY    37  34  89 SW22G32   29.86F FOG     WCI  26
HOBART         CLOUDY    37  34  89 SW16      29.91F WCI  28
ALTUS AFB      CLOUDY    37  37 100 S10       29.93F WCI  30
$$

OKZ018>020-024>031-031200-
CENTRAL OKLAHOMA

CITY           SKY/WX    TMP DP  RH WIND       PRES   REMARKS
OKLAHOMA CITY  CLOUDY    39  36  89 S24G31    29.89F FOG     WCI  28
OKC/WILEY POST CLOUDY    39  37  92 S23G30    29.90F FOG     WCI  28
OKC/TINKER AFB CLOUDY    38  37  96 S24       29.90F FOG     WCI  27
STILLWATER     CLOUDY    41  37  86 S13G23    29.88F
GUTHRIE        CLOUDY    40  37  89 S18G25    29.88F WCI  31
$$

OKZ008-013-054>072-031200-
NORTHEAST OKLAHOMA

CITY           SKY/WX    TMP DP  RH WIND       PRES   REMARKS
TULSA          LGT RAIN  39  39 100 S18G25    29.93F FOG     WCI  30
TULSA/JONES    CLOUDY    39  38  96 S12G20    29.95S FOG     WCI  32
PONCA CITY     CLOUDY    40  37  89 S9G18     29.84F FOG     WCI  34
BARTLESVILLE   CLOUDY    39  37  92 S13G21    29.90S WCI  31
MUSKOGEE       CLOUDY    36  34  92 S8        29.99S FOG     WCI  30
$$

OKZ032-040>043-046>053-073>077-031200-
SOUTH CENTRAL/SOUTHEAST OKLAHOMA

CITY           SKY/WX    TMP DP  RH WIND       PRES   REMARKS
ARDMORE/DWNTWN CLOUDY    39  37  93 S8        29.99F FOG     WCI  34
MCALESTER      CLOUDY    39  38  96 S10G20    29.99S FOG     WCI  32
$$



USA.gov is the U.S. government's official web portal to all federal, state and local government web resources and services.